Location: B?lite?ti
(46.2833°N, 22.7333°E)
Time: 15:38:12
(UTC+00:00)

SJ 16-02 - Pass Details

Date: 24 January 2021
Orbit: 606 x 616 km, 75.0° (Epoch: 01 March)

Event Time Altitude Azimuth Distance (km) Brightness Sun altitude
Rises 16:31:19 0° 201° (SSW) 2,863 5.3 -12.0°
Reaches altitude 10° 16:33:32 10° 202° (SSW) 1,962 4.5 -12.3°
Maximum altitude 16:37:55 81° 290° (WNW) 624 1.4 -13.1°
Drops below altitude 10° 16:42:20 10° 18° (NNE) 1,972 3.6 -13.8°
Enters shadow 16:43:28 - 19° (NNE) 2,428 4.1 -14.0°
